Location: Blackfoot
(53.5367°N, 112.7800°W)
Time: 17:04:33
(UTC-07:00)

Amateur Radio Satellites - All Passes

Search period start: 21 November 2014 16:34
Search period end: 22 November 2014 16:34
Location: Blackfoot, 53.5367°N, 112.7800°W

Satellite Date Start Highest point End Downlink Frequencies (MHz)
Time Altitude Azimuth
O/OREOS (USA 219) 21 Nov 16:42:04 16:46:33 77° 243° (WSW) 16:51:01 437.305
HO-68 21 Nov 16:45:51 16:47:23 11° 23° (NNE) 16:48:56 435.675
MOZHAYETS 4 21 Nov 16:49:46 16:53:41 26° 92° (E) 16:57:36
MaSat-1 21 Nov 16:52:33 16:55:19 36° 119° (ESE) 16:57:51 437.345
CUTE-I 21 Nov 17:01:57 17:07:03 46° 64° (ENE) 17:12:10 437.470
GONETS M04 21 Nov 17:09:33 17:14:37 16° 37° (NE) 17:19:40
YUBILEINY 21 Nov 17:12:24 17:16:54 15° 293° (WNW) 17:21:24 435.215
RS-15 21 Nov 17:14:21 17:24:39 51° 116° (ESE) 17:35:00 29.354- 29.394
JAS-2 21 Nov 17:28:18 17:35:46 57° 262° (W) 17:43:33 435.910
STARS 21 Nov 17:28:18 17:30:46 15° 307° (NW) 17:33:13 437.465
Cubesat XI-IV 21 Nov 17:58:47 18:04:09 72° 256° (WSW) 18:09:33 437.490
PRISM 21 Nov 18:12:23 18:16:14 32° 96° (E) 18:20:02 437.425
CUBESAT XI-V 21 Nov 18:17:36 18:20:49 18° 88° (E) 18:24:00 437.345
O/OREOS (USA 219) 21 Nov 18:23:28 18:25:10 12° 262° (W) 18:26:52 437.305
MOZHAYETS 4 21 Nov 18:26:40 18:31:11 51° 292° (WNW) 18:35:41
HO-68 21 Nov 18:27:01 18:32:49 28° 47° (NE) 18:38:38 435.675
MaSat-1 21 Nov 18:27:59 18:30:07 19° 316° (NW) 18:32:07 437.345
STRAND 1 21 Nov 18:28:31 18:32:27 22° 90° (E) 18:36:21 437.568
AO-7 21 Nov 18:34:30 18:35:35 10° 285° (WNW) 18:36:41 29.400- 29.500
SHINDAISAT 21 Nov 18:36:46 18:38:17 18° 35° (NE) 18:39:46 437.305
CUTE-I 21 Nov 18:42:23 18:47:17 36° 264° (W) 18:52:13 437.470
SEEDS 21 Nov 18:49:09 18:50:50 12° 52° (NE) 18:52:31 437.485
GOMX 1 21 Nov 18:51:20 18:53:17 13° 52° (NE) 18:55:12 467.674
BRITE-PL 21 Nov 18:53:54 18:57:04 17° 56° (NE) 19:00:07 437.365/2234.400
GONETS M04 21 Nov 19:05:49 19:14:20 47° 66° (ENE) 19:22:45
CANX-2 21 Nov 19:08:35 19:11:41 20° 59° (ENE) 19:14:48 2200.000
AAUSAT CUBESAT 2 21 Nov 19:14:53 19:17:22 16° 56° (NE) 19:19:51 437.432
JAS-2 21 Nov 19:18:31 19:22:34 15° 284° (WNW) 19:26:41 435.910
RS-15 21 Nov 19:25:45 19:36:40 71° 324° (NW) 19:47:47 29.354- 29.394
COMPASS 1 21 Nov 19:26:00 19:29:06 21° 59° (ENE) 19:32:14 437.405
PHONESAT 2.4 21 Nov 19:38:16 19:39:27 11° 180° (S) 19:40:38 2401.200-2431.200
CINEMA 3 21 Nov 19:42:30 19:45:07 16° 56° (NE) 19:47:42 145.822/145.860
Cubesat XI-IV 21 Nov 19:42:38 19:45:15 14° 276° (W) 19:47:51 437.490
CUTE 1.7 & AOD 2 21 Nov 19:42:58 19:46:48 35° 65° (ENE) 19:50:40 437.475
DELFI C3 21 Nov 19:44:39 19:46:53 14° 55° (NE) 19:49:06 145.870
PRISM 21 Nov 19:47:55 19:51:51 36° 295° (WNW) 19:55:45 437.425
UKube-1 21 Nov 19:49:33 19:52:39 19° 56° (NE) 19:55:45 .
CUBEBUG 2 21 Nov 19:49:39 19:51:30 13° 53° (NE) 19:53:21 437.445
CUBESAT XI-V 21 Nov 19:54:07 19:58:50 75° 288° (WNW) 20:03:30 437.345
UWE-3 21 Nov 19:59:42 20:01:48 14° 54° (NE) 20:03:54 435.000/436.395/437.385
Oscar 11 21 Nov 20:04:03 20:07:31 24° 60° (ENE) 20:11:01 145.826/435.025
MOZHAYETS 4 21 Nov 20:06:20 20:07:25 11° 312° (NW) 20:08:31
DOVE 4 21 Nov 20:06:32 20:10:44 35° 65° (ENE) 20:14:43 437.250
STRAND 1 21 Nov 20:07:03 20:12:10 70° 290° (WNW) 20:17:14 437.568
SHINDAISAT 21 Nov 20:07:36 20:09:11 21° 235° (SW) 20:10:45 437.305
HO-68 21 Nov 20:12:33 20:19:45 87° 70° (ENE) 20:27:01 435.675
DX 1 21 Nov 20:19:14 20:23:09 33° 63° (ENE) 20:27:04 434.975-435.025
SEEDS 21 Nov 20:21:46 20:25:56 69° 72° (ENE) 20:30:08 437.485
GOMX 1 21 Nov 20:25:57 20:30:43 64° 71° (ENE) 20:35:11 467.674
VELOX 1 21 Nov 20:29:08 20:32:05 18° 55° (NE) 20:35:02 145.980
BRITE-PL 21 Nov 20:30:00 20:35:05 88° 75° (ENE) 20:39:47 437.365/2234.400
AIST 1 21 Nov 20:38:39 20:42:59 63° 97° (E) 20:47:23
CANX-2 21 Nov 20:43:05 20:47:16 63° 258° (WSW) 20:51:30 2200.000
ZACube-1 21 Nov 20:43:49 20:47:20 26° 62° (ENE) 20:50:50 437.345
AAUSAT CUBESAT 2 21 Nov 20:48:20 20:52:30 86° 256° (WSW) 20:56:43 437.432
AISAT 21 Nov 20:51:26 20:55:07 26° 60° (ENE) 20:58:48 437.250
COMPASS 1 21 Nov 21:00:23 21:04:30 60° 259° (WSW) 21:08:41 437.405
HUMSAT D 21 Nov 21:02:53 21:06:19 26° 62° (ENE) 21:09:45 437.325/437.525
GONETS M04 21 Nov 21:02:53 21:11:26 55° 270° (W) 21:19:54
PCSat 21 Nov 21:08:03 21:13:06 41° 117° (ESE) 21:18:10 145.827
CINEMA 3 21 Nov 21:17:24 21:21:51 87° 255° (WSW) 21:26:08 145.822/145.860
DELFI C3 21 Nov 21:17:31 21:21:36 88° 75° (ENE) 21:25:44 145.870
CUTE 1.7 & AOD 2 21 Nov 21:18:59 21:22:47 32° 265° (W) 21:26:37 437.475
FUNcube-1 21 Nov 21:19:30 21:23:36 52° 69° (ENE) 21:27:40 145.935
CUBEBUG 1 21 Nov 21:22:41 21:25:59 21° 58° (ENE) 21:29:17 437.445
50 SAT 21 Nov 21:23:02 21:26:39 32° 65° (ENE) 21:30:16 437.505
CUBEBUG 2 21 Nov 21:23:17 21:27:33 73° 73° (ENE) 21:31:46 437.445
UKube-1 21 Nov 21:24:01 21:28:23 73° 256° (WSW) 21:32:46 .
CUBESAT XI-V 21 Nov 21:32:54 21:35:32 15° 308° (NW) 21:38:10 437.345
UWE-3 21 Nov 21:33:29 21:37:45 80° 74° (ENE) 21:41:57 435.000/436.395/437.385
Oscar 11 21 Nov 21:39:15 21:43:27 52° 260° (W) 21:47:42 145.826/435.025
RS-15 21 Nov 21:40:29 21:50:59 47° 355° (N) 22:01:45 29.354- 29.394
DOVE 4 21 Nov 21:44:16 21:48:32 35° 263° (W) 21:52:37 437.250
ESTCUBE 1 21 Nov 21:45:52 21:49:55 32° 63° (ENE) 21:53:58 437.505/2401.250
STRAND 1 21 Nov 21:47:30 21:50:32 16° 311° (NW) 21:53:33 437.568
DX 1 21 Nov 21:55:15 21:59:21 38° 262° (W) 22:03:29 434.975-435.025
SEEDS 21 Nov 21:59:33 22:02:16 17° 272° (W) 22:05:00 437.485
HO-68 21 Nov 22:02:42 22:08:23 25° 271° (W) 22:14:06 435.675
VELOX 1 21 Nov 22:03:38 22:08:08 85° 255° (WSW) 22:12:40 145.980
AUBIESAT-1 21 Nov 22:04:29 22:05:28 11° 38° (NE) 22:06:28 437.475
GOMX 1 21 Nov 22:05:39 22:09:14 21° 269° (W) 22:12:39 467.674
M-CUBED/EXP-1 PRIME 21 Nov 22:05:49 22:07:15 12° 39° (NE) 22:08:43 437.505
BRITE-PL 21 Nov 22:11:10 22:14:11 16° 272° (W) 22:17:06 437.365/2234.400
POPSAT HIP 1 21 Nov 22:13:26 22:15:07 12° 86° (E) 22:16:47 437.405
BEESAT 3 21 Nov 22:13:52 22:17:51 49° 126° (SE) 22:21:55 437.485
AIST 1 21 Nov 22:17:50 22:21:07 20° 298° (WNW) 22:24:25
ZACube-1 21 Nov 22:19:32 22:23:35 44° 261° (W) 22:27:36 437.345
BUGSAT 1 21 Nov 22:24:40 22:26:31 13° 86° (E) 22:28:21 437.445
BEESAT 2 21 Nov 22:25:20 22:29:24 56° 128° (SE) 22:33:32 435.950
AISAT 21 Nov 22:27:07 22:31:32 53° 259° (W) 22:35:56 437.250
AAUSAT CUBESAT 2 21 Nov 22:27:17 22:28:54 12° 275° (W) 22:30:31 437.432
TIGRISAT 21 Nov 22:29:09 22:32:39 23° 92° (E) 22:36:11 435.000
HUMSAT D 21 Nov 22:38:01 22:42:00 44° 261° (W) 22:45:58 437.325/437.525
AIST 2 21 Nov 22:39:04 22:43:06 43° 125° (SE) 22:47:12 435.215
UNISAT 6 21 Nov 22:39:56 22:43:46 29° 95° (E) 22:47:39 437.425
POLYITAN 1 21 Nov 22:42:48 22:46:10 22° 92° (E) 22:49:30 437.675
QB50P2 21 Nov 22:46:41 22:50:11 24° 93° (E) 22:53:39 145.880/145.840
PCSat 21 Nov 22:51:11 22:56:28 51° 319° (NW) 23:01:48 145.827
DUCHIFAT 1 21 Nov 22:55:44 22:59:25 28° 95° (E) 23:03:05 145.980
DELFI C3 21 Nov 22:55:48 22:57:34 12° 274° (W) 22:59:21 145.870
FUNcube-1 21 Nov 22:57:02 23:00:17 21° 268° (W) 23:03:31 145.935
CUBEBUG 1 21 Nov 22:57:31 23:01:58 68° 257° (WSW) 23:06:25 437.445
CINEMA 3 21 Nov 22:57:47 22:59:43 13° 274° (W) 23:01:38 145.822/145.860
50 SAT 21 Nov 22:58:20 23:02:00 32° 264° (W) 23:05:40 437.505
CUSAT 1 21 Nov 22:59:44 23:01:44 14° 63° (ENE) 23:03:59 437.405
GONETS M04 21 Nov 23:02:00 23:06:09 14° 294° (WNW) 23:10:17
CUBEBUG 2 21 Nov 23:02:10 23:04:47 16° 272° (W) 23:07:23 437.445
UKube-1 21 Nov 23:04:20 23:05:22 11° 275° (W) 23:06:25 .
SPROUT 21 Nov 23:04:43 23:08:47 41° 67° (ENE) 23:12:52 437.525
DANDE 21 Nov 23:05:25 23:06:58 12° 63° (ENE) 23:08:41 436.750
ANTELSAT 21 Nov 23:07:52 23:12:09 51° 100° (E) 23:16:29 437.575/2403.000
TISAT 1 21 Nov 23:09:23 23:13:32 52° 69° (ENE) 23:17:42 437.305
UWE-3 21 Nov 23:12:34 23:14:53 14° 273° (W) 23:17:11 435.000/436.395/437.385
NANOSAT C BR1 21 Nov 23:14:09 23:18:12 42° 98° (E) 23:22:12 145.865
ESTCUBE 1 21 Nov 23:22:25 23:26:43 41° 262° (W) 23:31:04 437.505/2401.250
QB50P1 21 Nov 23:23:21 23:27:30 51° 100° (E) 23:31:36 145.935-145.965
ITUPSAT 1 21 Nov 23:24:50 23:28:16 20° 54° (NE) 23:31:42 437.325
AUBIESAT-1 21 Nov 23:35:28 23:39:22 43° 59° (ENE) 23:43:38 437.475
SWISSCUBE 21 Nov 23:37:01 23:40:55 25° 58° (ENE) 23:44:51 437.505
M-CUBED/EXP-1 PRIME 21 Nov 23:37:20 23:41:16 48° 60° (ENE) 23:45:35 437.505
VELOX 1 21 Nov 23:43:17 23:45:27 13° 274° (W) 23:47:37 145.980
POPSAT HIP 1 21 Nov 23:47:29 23:51:45 85° 105° (ESE) 23:55:58 437.405
BEESAT 3 21 Nov 23:52:21 23:56:15 37° 328° (NNW) 00:00:12 437.485
RS-15 21 Nov 23:54:46 00:05:41 60° 28° (NNE) 00:17:00 29.354- 29.394
BUGSAT 1 21 Nov 23:58:31 00:02:42 88° 286° (WNW) 00:06:47 437.445
BEESAT 2 22 Nov 00:04:05 00:07:56 34° 329° (NNW) 00:11:50 435.950
TIGRISAT 22 Nov 00:05:29 00:09:42 51° 291° (WNW) 00:13:59 435.000
BEESAT 22 Nov 00:08:25 00:12:52 40° 64° (ENE) 00:17:21 436.000
KKS-1 22 Nov 00:14:50 00:17:07 14° 52° (NE) 00:19:24 437.445
UNISAT 6 22 Nov 00:16:36 00:20:42 41° 294° (WNW) 00:24:52 437.425
AIST 2 22 Nov 00:17:43 00:21:48 42° 326° (NW) 00:25:57 435.215
POLYITAN 1 22 Nov 00:18:18 00:22:25 50° 291° (WNW) 00:26:30 437.675
QB50P2 22 Nov 00:22:16 00:26:21 46° 292° (WNW) 00:30:24 145.880/145.840
DUCHIFAT 1 22 Nov 00:31:29 00:35:26 39° 294° (WNW) 00:39:21 145.980
PCSat 22 Nov 00:36:49 00:41:06 23° 343° (NNW) 00:45:23 145.827
CUBEBUG 1 22 Nov 00:38:35 00:39:13 10° 277° (W) 00:39:51 437.445
SPROUT 22 Nov 00:41:16 00:45:02 28° 266° (W) 00:48:48 437.525
CUSAT 1 22 Nov 00:41:24 00:45:06 80° 258° (WSW) 00:50:06 437.405
ANTELSAT 22 Nov 00:45:11 00:48:45 25° 299° (WNW) 00:52:23 437.575/2403.000
TISAT 1 22 Nov 00:46:17 00:49:41 22° 268° (W) 00:53:04 437.305
DANDE 22 Nov 00:47:08 00:50:42 82° 257° (WSW) 00:55:29 436.750
NANOSAT C BR1 22 Nov 00:50:21 00:53:58 28° 298° (WNW) 00:57:34 145.865
MaSat-1 22 Nov 00:51:41 00:53:55 38° 50° (NE) 00:56:07 437.345
QB50P1 22 Nov 00:59:46 01:03:10 24° 300° (WNW) 01:06:32 145.935-145.965
ITUPSAT 1 22 Nov 01:00:47 01:05:37 83° 255° (WSW) 01:10:29 437.325
AUBIESAT-1 22 Nov 01:11:02 01:14:34 28° 261° (W) 01:18:25 437.475
M-CUBED/EXP-1 PRIME 22 Nov 01:13:12 01:16:37 26° 262° (W) 01:20:17 437.505
SWISSCUBE 22 Nov 01:13:43 01:18:28 61° 258° (WSW) 01:23:17 437.505
STARS 22 Nov 01:18:15 01:22:06 30° 62° (ENE) 01:25:58 437.465
POPSAT HIP 1 22 Nov 01:24:31 01:27:07 16° 305° (NW) 01:29:42 437.405
BEESAT 3 22 Nov 01:32:32 01:35:33 19° 351° (N) 01:38:34 437.485
BUGSAT 1 22 Nov 01:35:18 01:37:36 15° 306° (NW) 01:39:53 437.445
Oscar 19 22 Nov 01:42:16 01:47:06 39° 97° (E) 01:51:56 437.125/150
BEESAT 2 22 Nov 01:44:21 01:47:21 18° 353° (N) 01:50:21 435.950
BEESAT 22 Nov 01:46:23 01:50:47 35° 264° (W) 01:55:13 436.000
KKS-1 22 Nov 01:48:35 01:53:02 73° 72° (ENE) 01:57:30 437.445
AIST 2 22 Nov 01:58:14 02:01:28 20° 349° (N) 02:04:42 435.215
RS-15 22 Nov 02:07:34 02:18:33 69° 236° (SW) 02:30:00 29.354- 29.394
PCSat 22 Nov 02:22:19 02:26:22 21° 9° (N) 02:30:25 145.827
ISS 22 Nov 02:23:59 02:26:46 25° 152° (SSE) 02:29:33 145.825
ITAMSAT 1 22 Nov 02:25:16 02:30:07 38° 97° (E) 02:34:55 435.822/435.867
MOZHAYETS 4 22 Nov 02:25:19 02:26:07 10° 47° (NE) 02:26:54
YUBILEINY 22 Nov 02:26:15 02:34:04 38° 83° (E) 02:41:52 435.215
CUSAT 1 22 Nov 02:27:47 02:27:59 10° 271° (W) 02:28:12 437.405
MaSat-1 22 Nov 02:28:00 02:28:17 10° 250° (WSW) 02:28:33 437.345
Gurwin Techsat 1B 22 Nov 02:31:13 02:35:47 28° 92° (E) 02:40:19 435.225
ITUPSAT 1 22 Nov 02:41:46 02:44:18 14° 274° (W) 02:46:51 437.325
HORYU 2 22 Nov 02:49:06 02:52:10 18° 89° (E) 02:55:12 437.375
STARS 22 Nov 02:54:19 02:58:30 41° 262° (W) 03:02:42 437.465
BEESAT 3 22 Nov 03:11:57 03:15:09 20° 15° (NNE) 03:18:21 437.485
Oscar 19 22 Nov 03:21:42 03:26:29 40° 297° (WNW) 03:31:17 437.125/150
BEESAT 2 22 Nov 03:23:43 03:27:01 21° 16° (NNE) 03:30:18 435.950
KKS-1 22 Nov 03:27:15 03:30:13 17° 271° (W) 03:33:11 437.445
PRISM 22 Nov 03:37:50 03:38:43 11° 49° (NE) 03:39:37 437.425
AIST 2 22 Nov 03:38:12 03:41:30 21° 13° (NNE) 03:44:46 435.215
MOZHAYETS 4 22 Nov 03:57:54 04:02:19 49° 68° (ENE) 04:06:48
ISS 22 Nov 03:59:49 04:03:04 58° 172° (S) 04:06:19 145.825
ITAMSAT 1 22 Nov 04:04:49 04:09:41 41° 297° (WNW) 04:14:31 435.822/435.867
PCSat 22 Nov 04:06:10 04:11:15 38° 34° (NE) 04:16:20 145.827
Gurwin Techsat 1B 22 Nov 04:10:53 04:16:06 57° 293° (WNW) 04:21:17 435.225
STRAND 1 22 Nov 04:14:40 04:17:12 14° 47° (NE) 04:19:44 437.568
RS-15 22 Nov 04:21:06 04:28:52 22° 261° (W) 04:36:51 29.354- 29.394
YUBILEINY 22 Nov 04:21:40 04:30:26 66° 287° (WNW) 04:39:12 435.215
HORYU 2 22 Nov 04:24:52 04:29:21 72° 289° (WNW) 04:33:49 437.375
AO-7 22 Nov 04:25:57 04:33:55 45° 99° (E) 04:41:50 29.400- 29.500
JAS-2 22 Nov 04:32:08 04:37:52 23° 83° (E) 04:43:09 435.910
BEESAT 3 22 Nov 04:50:10 04:54:17 49° 37° (NE) 04:58:22 437.485
BEESAT 2 22 Nov 05:01:58 05:06:09 55° 39° (NE) 05:10:17 435.950
PRISM 22 Nov 05:09:17 05:13:24 56° 69° (ENE) 05:17:35 437.425
CUTE-I 22 Nov 05:15:24 05:16:17 10° 81° (E) 05:17:11 437.470
AIST 2 22 Nov 05:16:54 05:21:06 46° 36° (NE) 05:25:15 435.215
CUBESAT XI-V 22 Nov 05:26:59 05:31:17 36° 64° (ENE) 05:35:36 437.345
SO-50 22 Nov 05:32:05 05:36:25 44° 125° (SE) 05:40:55 436.795
MOZHAYETS 4 22 Nov 05:35:57 05:39:49 26° 268° (W) 05:43:44
ISS 22 Nov 05:36:19 05:39:33 54° 191° (SSW) 05:42:48 145.825
ITAMSAT 1 22 Nov 05:47:05 05:47:55 10° 318° (NW) 05:48:45 435.822/435.867
PCSat 22 Nov 05:49:37 05:55:00 62° 237° (WSW) 06:00:20 145.827
STRAND 1 22 Nov 05:50:22 05:55:25 58° 68° (ENE) 06:00:29 437.568
Gurwin Techsat 1B 22 Nov 05:52:25 05:55:03 14° 314° (NW) 05:57:41 435.225
HORYU 2 22 Nov 06:03:02 06:05:18 14° 309° (NW) 06:07:34 437.375
Cubesat XI-IV 22 Nov 06:09:54 06:14:31 29° 93° (E) 06:19:06 437.490
JAS-2 22 Nov 06:16:25 06:24:03 88° 106° (ESE) 06:30:50 435.910
AO-7 22 Nov 06:18:51 06:27:01 60° 301° (WNW) 06:35:09 29.400- 29.500
YUBILEINY 22 Nov 06:22:52 06:29:17 22° 313° (NW) 06:35:42 435.215
BEESAT 3 22 Nov 06:28:38 06:32:26 34° 238° (WSW) 06:36:12 437.485
AIST 1 22 Nov 06:39:33 06:43:35 33° 69° (ENE) 06:47:33
BEESAT 2 22 Nov 06:40:35 06:44:16 29° 240° (WSW) 06:47:55 435.950
PRISM 22 Nov 06:46:08 06:49:19 21° 269° (W) 06:52:32 437.425
CUTE-I 22 Nov 06:52:16 06:57:33 58° 101° (ESE) 07:02:47 437.470
AIST 2 22 Nov 06:55:42 06:59:43 38° 237° (WSW) 07:03:42 435.215
O/OREOS (USA 219) 22 Nov 07:00:50 07:04:53 34° 109° (ESE) 07:08:56 437.305
CUBESAT XI-V 22 Nov 07:04:18 07:08:43 39° 264° (W) 07:13:10 437.345
SO-50 22 Nov 07:12:35 07:17:02 46° 327° (NNW) 07:21:38 436.795
ISS 22 Nov 07:13:11 07:15:48 22° 211° (SSW) 07:18:25 145.825
STRAND 1 22 Nov 07:30:40 07:34:58 27° 268° (W) 07:39:19 437.568
PCSat 22 Nov 07:35:04 07:37:23 13° 257° (WSW) 07:39:41 145.827
HO-68 22 Nov 07:36:10 07:38:21 11° 78° (ENE) 07:40:32 435.675
Cubesat XI-IV 22 Nov 07:49:43 07:54:57 56° 293° (WNW) 08:00:08 437.490
JAS-2 22 Nov 08:01:59 08:08:14 29° 310° (NW) 08:14:02 435.910
AO-7 22 Nov 08:12:16 08:18:18 23° 325° (NW) 08:24:21 29.400- 29.500
UNISAT 6 22 Nov 08:13:02 08:13:42 10° 49° (NE) 08:14:21 437.425
GONETS M04 22 Nov 08:15:25 08:23:24 41° 84° (E) 08:31:26
AIST 1 22 Nov 08:17:16 08:21:17 34° 269° (W) 08:25:14
CANX-2 22 Nov 08:23:22 08:25:58 16° 88° (E) 08:28:35 2200.000
AAUSAT CUBESAT 2 22 Nov 08:28:05 08:29:08 11° 84° (E) 08:30:11 437.432
BRITE-PL 22 Nov 08:29:44 08:32:11 15° 87° (E) 08:34:36 437.365/2234.400
CUTE-I 22 Nov 08:32:47 08:37:22 30° 302° (WNW) 08:41:55 437.470
ANTELSAT 22 Nov 08:38:54 08:41:35 17° 55° (NE) 08:44:17 437.575/2403.000
COMPASS 1 22 Nov 08:39:09 08:41:43 16° 88° (E) 08:44:17 437.405
O/OREOS (USA 219) 22 Nov 08:39:59 08:44:15 41° 309° (NW) 08:48:30 437.305
NANOSAT C BR1 22 Nov 08:40:16 08:42:16 13° 53° (NE) 08:44:15 145.865
QB50P1 22 Nov 08:48:58 08:51:28 15° 55° (NE) 08:53:57 145.935-145.965
SO-50 22 Nov 08:54:53 08:58:39 23° 350° (N) 09:02:30 436.795
CUTE 1.7 & AOD 2 22 Nov 08:57:50 09:01:35 29° 94° (E) 09:05:20 437.475
UKube-1 22 Nov 09:07:21 09:09:17 13° 86° (E) 09:11:12 .
CINEMA 3 22 Nov 09:07:28 09:09:28 13° 87° (E) 09:11:29 145.822/145.860
POPSAT HIP 1 22 Nov 09:12:07 09:15:28 23° 60° (ENE) 09:18:48 437.405
UWE-3 22 Nov 09:20:17 09:20:30 10° 84° (E) 09:20:44 435.000/436.395/437.385
BUGSAT 1 22 Nov 09:20:35 09:23:58 23° 60° (ENE) 09:27:19 437.445
HO-68 22 Nov 09:20:52 09:27:53 52° 100° (E) 09:34:50 435.675
Oscar 11 22 Nov 09:20:54 09:24:04 19° 90° (E) 09:27:13 145.826/435.025
Cubesat XI-IV 22 Nov 09:31:23 09:34:00 14° 314° (NW) 09:36:37 437.490
TIGRISAT 22 Nov 09:34:20 09:38:22 43° 67° (ENE) 09:42:25 435.000
SEEDS 22 Nov 09:36:01 09:40:14 56° 101° (E) 09:44:26 437.485
DOVE 4 22 Nov 09:36:41 09:40:32 35° 97° (E) 09:44:23 437.250
DX 1 22 Nov 09:37:30 09:41:04 24° 93° (E) 09:44:35 434.975-435.025
POLYITAN 1 22 Nov 09:42:16 09:46:15 39° 66° (ENE) 09:50:14 437.675
UNISAT 6 22 Nov 09:45:27 09:49:37 55° 69° (ENE) 09:53:49 437.425
QB50P2 22 Nov 09:45:57 09:49:59 42° 67° (ENE) 09:54:01 145.880/145.840
JAS-2 22 Nov 09:48:56 09:50:53 11° 334° (NNW) 09:52:48 435.910
VELOX 1 22 Nov 09:50:09 09:51:57 12° 85° (E) 09:53:46 145.980
DUCHIFAT 1 22 Nov 09:54:39 09:58:46 50° 68° (ENE) 10:02:54 145.980
CANX-2 22 Nov 09:58:10 10:02:28 76° 287° (WNW) 10:06:45 2200.000
GOMX 1 22 Nov 09:59:28 10:03:40 74° 103° (ESE) 10:07:49 467.674
AAUSAT CUBESAT 2 22 Nov 10:01:20 10:05:35 77° 104° (ESE) 10:09:49 437.432
ZACube-1 22 Nov 10:02:14 10:05:32 22° 92° (E) 10:08:51 437.345
AO-7 22 Nov 10:04:58 10:08:10 13° 352° (N) 10:11:23 29.400- 29.500
BRITE-PL 22 Nov 10:07:06 10:11:20 72° 288° (WNW) 10:15:27 437.365/2234.400
GONETS M04 22 Nov 10:11:11 10:19:54 62° 288° (WNW) 10:28:43
AISAT 22 Nov 10:12:41 10:15:57 20° 90° (E) 10:19:11 437.250
NANOSAT C BR1 22 Nov 10:13:12 10:17:28 74° 72° (ENE) 10:21:44 145.865
ANTELSAT 22 Nov 10:13:36 10:17:53 83° 255° (WSW) 10:22:12 437.575/2403.000
COMPASS 1 22 Nov 10:13:45 10:18:00 75° 287° (WNW) 10:22:14 437.405
HUMSAT D 22 Nov 10:16:48 10:19:53 20° 91° (E) 10:22:57 437.325/437.525
QB50P1 22 Nov 10:22:30 10:26:47 89° 71° (ENE) 10:31:05 145.935-145.965
O/OREOS (USA 219) 22 Nov 10:23:00 10:24:54 12° 333° (NNW) 10:26:48 437.305
DELFI C3 22 Nov 10:27:27 10:31:35 66° 102° (ESE) 10:35:42 145.870
YUBILEINY 22 Nov 10:32:17 10:33:38 10° 23° (NNE) 10:34:59 435.215
50 SAT 22 Nov 10:33:04 10:36:20 23° 93° (E) 10:39:37 437.505
CUTE 1.7 & AOD 2 22 Nov 10:33:38 10:37:39 40° 293° (WNW) 10:41:39 437.475
SO-50 22 Nov 10:36:39 10:40:37 25° 15° (NNE) 10:44:39 436.795
FUNcube-1 22 Nov 10:38:02 10:42:04 45° 99° (E) 10:46:08 145.935
CUBEBUG 1 22 Nov 10:41:36 10:44:12 15° 87° (E) 10:46:46 437.445
UKube-1 22 Nov 10:41:46 10:46:10 85° 106° (ESE) 10:50:31 .
CINEMA 3 22 Nov 10:43:08 10:47:19 85° 286° (WNW) 10:51:33 145.822/145.860
CUBEBUG 2 22 Nov 10:44:46 10:48:56 68° 103° (ESE) 10:53:10 437.445
POPSAT HIP 1 22 Nov 10:46:54 10:51:06 56° 259° (W) 10:55:18 437.405
UWE-3 22 Nov 10:53:39 10:57:51 73° 103° (ESE) 11:02:06 435.000/436.395/437.385
BUGSAT 1 22 Nov 10:55:01 10:59:12 54° 259° (W) 11:03:23 437.445
Oscar 11 22 Nov 10:56:21 11:00:39 62° 289° (WNW) 11:04:56 145.826/435.025
HO-68 22 Nov 11:08:49 11:15:35 46° 302° (WNW) 11:22:19 435.675
ESTCUBE 1 22 Nov 11:08:58 11:12:54 28° 94° (E) 11:16:48 437.505/2401.250
TIGRISAT 22 Nov 11:11:44 11:15:20 26° 266° (W) 11:18:56 435.000
SEEDS 22 Nov 11:12:29 11:15:47 22° 300° (WNW) 11:19:05 437.485
DX 1 22 Nov 11:13:21 11:17:35 50° 292° (WNW) 11:21:47 434.975-435.025
DOVE 4 22 Nov 11:14:40 11:18:19 30° 296° (WNW) 11:21:59 437.250
POLYITAN 1 22 Nov 11:18:35 11:22:19 29° 265° (W) 11:26:04 437.675
QB50P2 22 Nov 11:22:25 11:26:05 27° 266° (W) 11:29:44 145.880/145.840
UNISAT 6 22 Nov 11:23:33 11:26:47 21° 269° (W) 11:30:03 437.425
VELOX 1 22 Nov 11:24:51 11:29:20 81° 105° (ESE) 11:33:45 145.980
Oscar 19 22 Nov 11:28:03 11:31:53 22° 54° (NE) 11:35:43 437.125/150
DUCHIFAT 1 22 Nov 11:31:30 11:34:55 23° 268° (W) 11:38:21 145.980
CANX-2 22 Nov 11:35:39 11:37:44 14° 307° (NW) 11:39:49 2200.000
AAUSAT CUBESAT 2 22 Nov 11:38:01 11:40:48 18° 303° (WNW) 11:43:36 437.432
ZACube-1 22 Nov 11:38:09 11:42:13 50° 291° (WNW) 11:46:18 437.345
GOMX 1 22 Nov 11:38:39 11:41:22 17° 304° (WNW) 11:44:02 467.674
BRITE-PL 22 Nov 11:47:27 11:49:06 12° 309° (NW) 11:50:45 437.365/2234.400
AISAT 22 Nov 11:48:37 11:53:02 63° 290° (WNW) 11:57:24 437.250
COMPASS 1 22 Nov 11:51:03 11:53:03 13° 307° (NW) 11:55:04 437.405
NANOSAT C BR1 22 Nov 11:51:13 11:53:53 16° 272° (W) 11:56:33 145.865
HUMSAT D 22 Nov 11:51:59 11:56:03 56° 290° (WNW) 12:00:08 437.325/437.525
AO-7 22 Nov 11:53:20 11:57:39 15° 20° (NNE) 12:01:59 29.400- 29.500
ANTELSAT 22 Nov 11:53:50 11:55:27 12° 275° (W) 11:57:03 437.575/2403.000
QB50P1 22 Nov 12:01:15 12:03:20 13° 273° (W) 12:05:26 145.935-145.965
DELFI C3 22 Nov 12:03:35 12:06:31 19° 302° (WNW) 12:09:27 145.870
SHINDAISAT 22 Nov 12:04:55 12:06:40 36° 129° (SE) 12:08:26 437.305
50 SAT 22 Nov 12:08:01 12:11:54 45° 292° (WNW) 12:15:46 437.505
ITAMSAT 1 22 Nov 12:11:54 12:15:53 23° 54° (NE) 12:19:53 435.822/435.867
GONETS M04 22 Nov 12:12:44 12:18:57 21° 315° (NW) 12:25:13
FUNcube-1 22 Nov 12:14:49 12:18:17 26° 298° (WNW) 12:21:46 145.935
CUBEBUG 1 22 Nov 12:16:45 12:21:11 80° 287° (WNW) 12:25:33 437.445
SO-50 22 Nov 12:17:19 12:22:05 57° 38° (NE) 12:26:55 436.795
UKube-1 22 Nov 12:19:00 12:21:48 17° 306° (NW) 12:24:34 .
Gurwin Techsat 1B 22 Nov 12:21:11 12:24:40 18° 51° (NE) 12:28:09 435.225
SPROUT 22 Nov 12:21:16 12:25:11 33° 96° (E) 12:29:04 437.525
CINEMA 3 22 Nov 12:21:47 12:23:58 14° 306° (NW) 12:26:08 145.822/145.860
CUBEBUG 2 22 Nov 12:22:22 12:25:16 19° 302° (WNW) 12:28:12 437.445
TISAT 1 22 Nov 12:24:06 12:28:06 38° 98° (E) 12:32:02 437.305
YUBILEINY 22 Nov 12:27:09 12:34:31 29° 54° (NE) 12:41:48 435.215
UWE-3 22 Nov 12:31:11 12:33:59 18° 303° (WNW) 12:36:48 435.000/436.395/437.385
Oscar 11 22 Nov 12:34:29 12:36:01 12° 309° (NW) 12:37:33 145.826/435.025
ESTCUBE 1 22 Nov 12:45:37 12:49:59 46° 293° (WNW) 12:54:19 437.505/2401.250
AUBIESAT-1 22 Nov 12:47:31 12:50:37 17° 93° (E) 12:53:42 437.475
M-CUBED/EXP-1 PRIME 22 Nov 12:49:39 12:53:03 19° 94° (E) 12:56:28 437.505
DX 1 22 Nov 12:52:38 12:52:53 10° 313° (NW) 12:53:09 434.975-435.025
ITUPSAT 1 22 Nov 12:56:10 12:59:19 17° 88° (E) 13:02:27 437.325
HO-68 22 Nov 12:57:38 13:01:41 16° 326° (NW) 13:05:44 435.675
VELOX 1 22 Nov 13:02:24 13:05:24 18° 305° (NW) 13:08:24 145.980
Oscar 19 22 Nov 13:05:34 13:10:42 81° 255° (WSW) 13:15:52 437.125/150
SWISSCUBE 22 Nov 13:08:18 13:12:07 23° 91° (E) 13:15:55 437.505
JAS-2 22 Nov 13:12:33 13:14:09 11° 25° (NNE) 13:15:45 435.910
AISAT 22 Nov 13:27:03 13:28:51 12° 310° (NW) 13:30:39 437.250
SHINDAISAT 22 Nov 13:36:31 13:37:28 13° 329° (NNW) 13:38:25 437.305
BEESAT 22 Nov 13:39:54 13:44:24 38° 97° (E) 13:48:52 436.000
AO-7 22 Nov 13:40:56 13:48:04 34° 46° (NE) 13:55:15 29.400- 29.500
O/OREOS (USA 219) 22 Nov 13:46:46 13:48:15 11° 25° (NNE) 13:49:44 437.305
ITAMSAT 1 22 Nov 13:49:38 13:54:52 79° 255° (WSW) 14:00:08 435.822/435.867
HORYU 2 22 Nov 13:53:37 13:57:39 35° 64° (ENE) 14:01:43 437.375
CUBEBUG 1 22 Nov 13:54:28 13:56:54 15° 307° (NW) 13:59:19 437.445
SPROUT 22 Nov 13:57:24 14:01:19 35° 295° (WNW) 14:05:12 437.525
SO-50 22 Nov 13:58:07 14:02:32 35° 238° (WSW) 14:06:58 436.795
Gurwin Techsat 1B 22 Nov 13:58:34 14:03:52 77° 71° (ENE) 14:09:13 435.225
TISAT 1 22 Nov 14:00:10 14:03:52 30° 297° (WNW) 14:07:33 437.305
CUSAT 1 22 Nov 14:02:12 14:04:53 68° 102° (ESE) 14:07:29 437.405
DANDE 22 Nov 14:10:36 14:13:23 71° 102° (ESE) 14:15:59 436.750
AUBIESAT-1 22 Nov 14:21:20 14:26:14 87° 112° (ESE) 14:31:10 437.475
M-CUBED/EXP-1 PRIME 22 Nov 14:23:44 14:28:39 85° 293° (WNW) 14:33:36 437.505
YUBILEINY 22 Nov 14:23:51 14:32:39 90° 80° (E) 14:41:22 435.215
ITUPSAT 1 22 Nov 14:33:00 14:37:52 82° 288° (WNW) 14:42:40 437.325
STARS 22 Nov 14:38:15 14:41:49 24° 93° (E) 14:45:23 437.465
SWISSCUBE 22 Nov 14:45:38 14:50:24 61° 291° (WNW) 14:55:07 437.505
Oscar 19 22 Nov 14:48:07 14:50:54 15° 275° (W) 14:53:42 437.125/150
JAS-2 22 Nov 14:50:31 14:56:43 27° 49° (NE) 15:02:57 435.910
KKS-1 22 Nov 15:10:10 15:14:35 62° 102° (ESE) 15:18:59 437.445
BEESAT 22 Nov 15:17:51 15:22:16 37° 297° (WNW) 15:26:40 436.000
O/OREOS (USA 219) 22 Nov 15:24:52 15:29:02 36° 49° (NE) 15:33:09 437.305
HORYU 2 22 Nov 15:30:17 15:34:21 35° 263° (W) 15:38:28 437.375
AO-7 22 Nov 15:31:49 15:40:09 86° 249° (WSW) 15:48:33 29.400- 29.500
ITAMSAT 1 22 Nov 15:32:23 15:35:15 15° 275° (W) 15:38:07 435.822/435.867
Gurwin Techsat 1B 22 Nov 15:40:32 15:44:28 21° 271° (W) 15:48:25 435.225
AUBIESAT-1 22 Nov 15:57:04 16:00:42 22° 311° (NW) 16:04:23 437.475
M-CUBED/EXP-1 PRIME 22 Nov 15:59:38 16:03:06 20° 312° (NW) 16:06:38 437.505
Cubesat XI-IV 22 Nov 16:00:30 16:04:13 20° 51° (NE) 16:07:57 437.490
MaSat-1 22 Nov 16:02:08 16:03:53 15° 113° (ESE) 16:05:32 437.345
ITUPSAT 1 22 Nov 16:12:01 16:15:05 17° 308° (NW) 16:18:08 437.325
STARS 22 Nov 16:14:20 16:18:36 51° 292° (WNW) 16:22:51 437.465
GONETS M04 22 Nov 16:21:01 16:23:30 11° 25° (NNE) 16:25:59
SWISSCUBE 22 Nov 16:25:08 16:27:23 13° 311° (NW) 16:29:37 437.505
